Wind_Speed
17 16 14 14 15 16 15 15 17 20 20 20 21 20 20 18 15 17 16 15 9 3 3 3 4 2 3 2 2 5 3 5 5 5 3 2 4 2 3 3 2 2 3 3 2 6 5 2 5 5 5 4 3 4
14 14 11 10 11 10 10 11 16 16 17 19 20 17 16 17 14 8 8 16 14 12 4 3 3 3 2 3 3 4 5 1 3 3 3 2 4 3 2 4 2 4 1 1 4 4 4 4 6 5 5 6 4 3
13 11 8 7 5 6 7 10 12 14 16 17 19 16 13 15 16 12 9 7 6 6 3 3 3 2 5 6 1 3 2 3 2 4 3 2 5 2 2 1 2 2 2 1 4 3 5 5 4 4 5 7 6 7
10 9 6 4 4 4 5 6 9 12 15 17 18 13 7 12 11 18 16 9 3 5 4 4 1 2 4 4 7 3 1 2 1 2 3 3 3 1 0 2 4 2 4 3 6 5 11 3 4 5 6 8 10 12
8 5 3 2 4 5 4 5 8 10 13 15 15 11 10 8 6 7 20 20 12 3 3 2 1 6 4 4 6 4 3 1 2 3 3 1 0 2 2 1 3 8 4 4 5 13 7 11 6 3 8 11 10 10
5 0 3 6 8 8 7 7 8 8 7 11 11 13 10 9 3 1 3 10 16 6 3 2 1 6 11 4 4 2 2 2 3 3 1 1 2 2 3 1 4 10 5 4 6 13 11 14 8 8 4 8 15 12
1 4 7 10 10 8 6 7 7 3 3 6 8 11 9 15 19 10 3 10 11 5 3 2 3 5 12 4 4 4 5 1 3 2 2 2 1 2 3 2 14 8 11 11 5 12 11 3 12 17 14 22 22 21
4 7 10 11 8 7 6 5 2 4 2 3 5 6 9 10 6 7 14 20 5 5 8 3 4 4 14 3 3 8 3 2 4 2 1 2 1 1 3 8 10 10 11 5 11 11 13 17 15 12 16 15 10 10
10 13 10 9 12 10 8 8 8 7 5 3 4 5 4 6 5 5 6 8 20 12 3 3 3 4 12 3 2 4 2 3 1 2 1 0 1 3 3 9 10 10 9 13 14 11 10 12 13 13 12 13 12 12
11 12 11 11 12 11 11 9 8 7 6 4 3 3 4 6 6 5 2 5 8 8 4 2 0 3 3 3 3 4 2 1 2 2 1 1 1 3 3 5 6 7 9 10 16 18 17 17 15 15 13 15 15 15
10 15 16 13 11 12 12 11 5 4 4 3 4 2 4 7 5 6 4 4 3 5 3 1 2 2 2 2 2 1 2 2 2 3 2 2 1 3 5 8 8 13 16 15 15 16 14 12 12 13 13 19 20 20
10 13 15 13 11 10 11 11 12 10 8 6 7 5 5 9 5 7 3 4 5 2 4 3 3 1 3 1 2 3 0 3 2 1 3 2 3 5 14 14 12 17 19 19 21 19 20 21 20 18 17 18 20 22
10 11 12 15 16 14 10 9 8 7 5 4 5 6 4 5 9 6 7 5 4 4 3 4 4 1 3 2 1 3 6 3 0 4 2 3 6 15 17 16 15 23 23 22 23 21 22 23 20 20 20 21 19 20
7 8 10 12 15 17 17 12 7 5 5 4 5 8 5 6 3 2 3 3 4 1 6 5 2 1 2 4 1 3 3 3 5 6 4 6 17 18 17 21 15 18 24 23 21 22 23 22 21 21 19 21 19 20
9 9 9 11 12 11 13 14 15 13 7 4 5 4 3 3 2 4 2 3 3 2 2 3 2 1 2 3 2 3 7 5 0 3 5 12 19 18 18 19 17 19 24 23 22 23 23 24 23 21 21 19 18 22
3 4 9 9 13 13 6 10 15 7 7 5 8 4 2 3 4 4 3 3 3 3 1 1 1 4 4 1 6 2 2 4 5 9 12 14 17 17 18 24 26 27 24 25 25 24 25 24 24 25 25 21 20 23
2 2 5 6 7 12 9 5 6 9 5 5 3 2 2 2 3 3 1 3 15 3 2 2 6 3 3 4 6 1 1 9 13 13 12 14 16 18 25 28 28 26 27 25 27 27 26 27 25 24 16 21 20 23
3 4 5 5 4 5 9 9 7 5 6 2 4 3 1 0 1 3 4 8 6 3 3 1 2 6 1 3 4 7 11 10 10 11 14 24 27 26 27 26 27 28 25 26 25 25 25 24 21 21 24 25 19 19
9 9 6 5 4 4 5 8 8 4 2 1 1 1 0 2 2 6 9 13 3 2 2 3 5 2 2 4 10 12 11 10 11 12 20 26 25 26 26 28 27 25 26 25 24 23 24 22 24 24 28 20 19 20
9 7 11 9 3 4 6 4 5 5 2 2 2 2 0 2 6 6 7 11 4 2 5 3 1 3 6 10 12 9 15 21 11 13 14 21 27 27 27 27 25 27 26 26 26 29 26 26 22 25 27 23 21 18
5 6 6 6 7 12 8 2 4 2 2 3 1 1 2 3 3 3 3 11 3 2 2 2 4 10 20 21 22 23 22 20 14 13 11 12 28 27 26 27 28 26 24 24 23 25 27 22 27 27 21 24 21 21
4 5 3 8 7 6 8 7 4 3 3 1 2 2 2 2 2 3 6 3 1 1 1 3 11 15 17 18 23 25 25 27 23 22 23 25 19 22 23 26 26 24 25 25 26 24 26 27 26 23 22 24 25 20
5 4 6 7 6 6 2 3 4 4 3 2 2 3 3 3 2 7 2 2 2 7 12 15 17 18 19 22 23 22 22 23 22 23 23 24 25 25 26 26 26 26 25 27 24 28 25 28 26 26 23 23 23 20
6 7 5 4 4 1 2 4 2 3 3 4 3 2 4 2 3 3 1 2 3 14 16 20 20 19 19 17 16 20 23 23 24 25 25 25 24 27 28 27 27 27 27 25 30 26 24 25 27 22 22 18 22 12
6 8 5 5 3 5 5 5 5 4 2 2 2 3 3 3 2 2 1 3 3 3 14 18 16 15 8 15 22 23 24 24 24 25 28 24 25 27 26 27 27 26 28 27 26 26 26 27 24 22 17 22 23 17
6 4 4 2 2 4 2 3 2 1 1 2 1 3 2 2 4 3 2 2 2 4 16 19 15 15 16 18 18 23 27 30 27 23 27 29 28 24 24 25 26 26 31 30 28 26 28 27 22 18 20 22 24 23
4 1 2 2 3 3 3 2 2 3 2 1 2 3 3 4 3 3 2 1 4 10 21 21 19 19 20 25 26 26 29 27 26 25 31 28 21 22 25 26 23 34 31 32 28 26 29 20 24 19 22 23 22 22
3 2 4 2 3 1 4 2 2 2 3 2 2 2 5 6 4 2 2 5 14 17 24 24 19 20 22 24 24 27 28 27 27 27 26 17 18 23 28 21 30 29 28 28 28 28 28 22 23 21 23 23 22 21
3 1 2 3 2 3 2 3 4 2 1 2 3 2 3 3 2 2 1 5 10 16 24 27 28 26 26 27 24 25 24 22 25 21 20 13 30 36 34 29 34 29 28 28 27 26 27 27 24 24 22 22 20 22
1 1 3 2 3 2 2 2 2 1 1 2 2 4 4 4 3 3 2 5 10 16 20 21 22 23 25 28 27 29 26 20 26 24 17 18 29 36 31 37 34 30 29 28 26 24 24 25 23 23 21 24 24 24
1 2 3 2 2 2 1 0 0 1 1 1 2 2 3 6 5 2 2 4 9 19 24 27 25 24 23 26 25 24 24 27 31 28 25 27 30 29 32 37 31 29 28 27 27 23 27 25 24 24 22 24 25 24
2 2 3 2 1 1 0 2 1 1 2 1 2 1 3 3 3 2 2 4 9 18 19 21 21 22 21 18 18 18 19 27 30 29 28 30 30 29 33 31 28 29 29 28 25 23 26 25 24 26 22 24 26 25
2 2 2 3 2 1 2 2 3 2 2 1 2 2 2 3 4 3 3 3 8 15 17 20 17 14 21 17 20 23 25 26 26 24 22 24 25 26 28 28 27 29 29 28 24 26 25 26 27 28 24 24 25 24
Wind_Direction
118 114 106 90 81 75 69 62 54 45 35 26 28 28 30 28 36 61 54 49 92 99 275 169 172 33 342 50 69 291 17 8 9 50 72 285 61 301 70 252 326 355 34 340 1 42 352 246 343 74 233 299 262 264
126 115 106 89 79 76 65 54 46 36 33 23 24 20 27 29 29 49 67 64 74 86 162 150 119 63 46 220 152 333 153 201 205 73 38 113 32 23 198 5 319 26 124 254 150 217 254 250 208 239 188 217 260 245
121 117 111 96 75 65 56 46 41 38 25 19 20 17 28 35 44 57 78 69 75 96 32 61 323 28 27 23 23 92 340 191 356 186 164 157 78 132 77 0 314 299 142 241 345 285 264 261 244 242 221 227 250 249
123 121 117 86 46 29 34 31 18 17 18 17 14 16 33 48 55 56 66 42 73 121 103 281 12 27 356 15 34 40 210 288 209 109 83 88 106 31 236 198 41 259 162 295 272 308 315 319 243 260 263 263 271 270
129 129 97 11 348 4 10 344 343 359 15 15 17 23 34 45 42 59 60 47 40 67 151 241 162 24 13 328 298 305 269 109 68 40 47 35 298 49 333 93 24 348 330 359 305 301 273 293 285 261 282 286 276 270
123 73 334 325 324 334 333 318 304 316 345 355 27 39 33 8 355 349 30 27 21 44 93 62 280 15 18 20 26 353 348 50 84 111 166 319 271 96 70 31 346 345 306 310 315 307 299 290 287 278 241 267 281 272
37 330 329 323 333 334 312 313 316 322 295 333 30 41 48 51 60 62 109 320 350 16 75 38 9 14 356 13 21 358 5 28 101 118 66 138 340 118 88 17 333 327 328 309 302 320 315 298 309 310 280 291 295 289
9 12 4 2 359 356 343 337 8 94 174 33 40 51 49 45 49 51 35 25 35 73 49 51 313 7 8 355 349 6 356 11 17 141 36 57 311 82 52 319 322 324 325 305 331 320 296 303 306 298 304 295 290 289
37 23 24 31 40 39 41 60 82 97 92 81 73 49 48 30 35 7 17 32 48 56 94 66 12 305 356 18 4 339 1 33 258 55 6 267 144 63 309 311 332 328 329 313 324 318 324 328 323 328 328 325 320 321
47 39 47 45 41 43 46 60 71 87 95 78 51 40 20 1 347 3 46 27 28 24 38 91 186 313 12 351 329 344 2 35 35 277 302 73 138 180 231 260 272 299 317 319 330 332 334 330 329 327 324 322 317 315
58 45 42 39 41 44 43 45 73 78 55 52 45 77 356 4 19 35 30 46 352 19 21 295 141 294 354 32 288 106 286 307 46 282 87 339 2 275 284 336 312 321 321 311 310 303 302 301 311 316 321 322 321 319
64 52 44 38 42 49 51 57 62 65 67 73 96 72 31 27 32 60 354 355 43 332 335 11 318 232 298 98 41 320 29 20 296 309 64 3 252 285 344 340 337 338 332 327 327 321 321 319 316 316 309 311 313 315
70 66 59 53 52 56 60 62 65 58 71 68 58 46 42 337 32 54 355 323 339 342 349 348 321 302 334 30 347 28 28 279 325 32 253 220 324 343 339 337 333 332 332 329 326 324 324 320 318 321 319 318 310 331
80 77 68 58 51 52 52 50 51 53 51 67 66 28 70 358 2 199 217 242 265 315 329 318 268 322 289 359 240 35 260 53 17 12 289 316 335 331 333 333 332 332 332 327 322 328 322 317 318 313 312 325 319 324
85 78 71 52 34 35 47 50 57 56 48 72 61 65 66 226 282 258 250 326 276 283 329 346 335 64 315 12 26 352 5 344 239 275 291 325 325 326 329 331 330 329 328 325 330 326 324 322 318 311 307 314 320 328
64 62 46 44 29 35 62 55 52 58 60 67 37 62 329 46 323 348 333 296 291 322 300 85 0 30 6 37 19 329 60 267 300 322 318 320 320 323 325 326 326 324 328 329 326 325 327 325 320 314 311 304 311 323
16 68 12 10 29 41 51 58 48 50 83 51 17 20 92 121 215 269 279 284 328 15 20 46 41 294 308 9 347 23 272 307 315 316 316 315 318 321 322 322 323 329 329 329 328 328 326 322 319 318 321 315 304 314
58 50 43 54 86 88 49 40 76 66 59 336 86 283 358 154 279 306 315 327 4 11 16 104 114 41 47 318 292 307 315 311 311 312 312 316 319 321 321 319 326 326 325 327 326 324 321 323 325 327 319 317 330 324
84 60 54 62 87 85 67 35 36 93 190 244 308 345 168 267 296 315 326 355 347 14 93 27 47 345 288 291 306 307 308 313 315 316 313 320 325 325 326 327 326 328 331 329 329 323 327 320 324 317 318 333 322 338
81 71 60 64 85 81 65 31 45 89 114 224 50 22 206 228 312 322 346 2 1 57 35 34 247 265 301 306 309 304 310 317 318 321 323 329 332 334 333 331 331 332 331 330 329 331 325 328 327 332 332 332 345 334
83 58 55 56 59 60 81 23 48 129 153 100 267 65 280 359 23 13 334 346 44 69 4 254 285 309 315 311 314 317 318 323 321 318 315 320 329 329 327 330 331 329 328 325 324 324 328 332 337 333 346 342 337 337
92 73 69 44 74 68 79 39 110 114 79 185 35 52 37 18 328 312 305 45 26 311 237 273 324 322 319 319 321 326 326 329 323 320 324 326 326 328 330 330 328 326 327 326 325 326 341 337 338 349 349 337 335 338
96 60 60 36 72 44 287 2 74 0 84 293 20 38 348 341 243 333 51 212 250 333 335 328 326 328 321 320 324 330 337 334 330 330 329 328 328 328 328 330 330 327 325 328 344 343 338 338 339 347 341 342 343 342
70 54 49 55 52 129 3 20 36 54 40 36 50 10 333 273 322 47 73 263 265 334 341 339 339 333 335 338 337 338 343 342 335 332 335 333 332 332 332 329 329 328 327 342 344 339 339 339 341 343 341 345 340 9
69 351 47 9 351 62 40 17 356 48 55 326 61 348 319 10 50 33 255 283 310 309 346 346 344 340 324 325 332 334 341 344 337 327 328 336 330 325 328 334 336 338 347 349 344 340 340 339 343 347 357 347 345 8
72 317 65 206 328 92 189 69 50 179 130 21 268 265 23 71 48 300 250 244 267 306 345 343 334 331 334 336 324 329 332 338 334 328 328 334 331 325 322 329 333 346 352 352 340 342 339 340 357 356 357 355 352 352
84 357 339 50 115 111 72 42 75 98 95 104 273 14 60 44 295 262 276 4 312 341 353 355 350 338 326 327 334 336 340 343 337 324 323 329 334 340 337 326 341 338 346 344 343 349 339 357 357 3 358 355 355 352
131 148 129 237 69 23 126 93 120 168 214 224 94 40 142 178 233 237 150 9 359 355 356 0 2 355 349 349 348 345 346 346 341 340 347 350 354 353 349 348 346 348 350 351 352 351 348 8 360 5 1 355 351 356
75 344 97 47 43 41 153 155 198 230 197 128 145 218 242 234 269 192 201 350 352 357 358 356 356 355 358 357 358 357 357 353 352 349 349 343 344 349 350 350 352 352 348 346 354 358 359 5 1 4 1 356 356 357
302 156 92 78 108 195 235 169 196 173 230 245 282 301 282 265 269 270 262 350 2 4 1 358 356 359 353 352 343 348 5 3 1 358 337 330 329 332 341 346 354 349 346 346 347 349 359 0 1 358 358 1 3 1
134 72 73 61 146 245 215 66 220 241 251 252 218 185 257 309 308 220 228 344 2 4 357 358 357 5 359 356 350 343 340 352 355 359 350 337 337 341 343 350 353 351 348 350 351 354 355 356 358 355 355 356 359 358
46 102 129 111 252 279 216 84 110 126 318 24 282 241 315 358 297 256 236 346 352 359 358 357 355 352 1 2 2 358 347 348 355 354 353 350 348 350 345 355 356 356 358 359 356 356 359 356 355 353 351 354 358 357
54 50 56 87 40 16 311 86 24 351 4 330 274 208 214 187 239 296 284 299 349 353 353 355 358 3 10 9 7 6 3 360 360 356 355 355 356 355 352 360 360 2 2 7 0 1 359 358 357 354 351 352 352 356
Height
850 849 852 853 850 848 849 848 845 842 843 842 836 836 834 832 829 824 826 822 822 850 860 858 859 864 863 867 865 844 841 837 839 852 857 880 875 885 885 892 879 882 897 899 885 891 881 857 842 849 855 850 845 841
853 852 856 855 854 852 851 850 845 845 846 844 842 839 839 835 833 829 830 828 829 835 855 857 857 858 858 857 860 855 858 867 864 865 870 871 869 882 913 877 875 861 874 879 884 866 859 862 855 853 854 851 846 843
854 854 857 856 858 855 853 849 848 846 847 847 844 842 841 838 834 835 833 832 834 843 857 857 859 858 857 855 854 858 859 858 859 858 870 876 884 887 896 878 883 881 896 886 866 859 853 854 847 845 843 843 838 836
858 857 858 857 860 857 852 851 850 848 848 846 846 845 842 838 839 838 835 835 836 838 858 866 859 858 857 856 855 855 855 855 855 857 868 879 879 874 883 879 872 870 880 869 875 863 846 848 844 840 837 836 833 830
860 860 859 860 860 857 853 852 851 850 848 847 848 846 841 842 841 840 839 840 838 841 858 865 859 859 857 856 856 856 855 855 858 862 871 884 882 875 884 880 874 865 862 862 861 853 853 844 841 838 836 832 829 827
862 863 860 860 858 854 853 851 853 851 849 849 850 846 845 843 841 841 841 842 841 840 849 862 861 860 858 857 857 856 854 854 858 867 881 885 883 881 890 885 874 867 862 860 856 850 846 840 837 834 832 827 822 820
864 864 860 859 854 853 852 851 851 848 848 849 848 849 848 846 843 845 854 850 844 844 848 866 865 863 861 860 859 858 856 858 860 871 874 879 877 877 889 886 867 866 861 856 853 847 841 839 832 827 825 820 816 813
864 862 860 856 854 853 850 848 847 847 848 848 850 851 850 849 849 850 852 850 846 847 851 880 876 868 869 869 869 862 864 862 864 871 874 878 875 878 880 874 869 864 859 854 851 847 842 835 829 824 820 816 811 807
865 863 860 858 854 853 850 848 847 847 848 850 851 851 851 852 853 856 855 854 852 856 880 893 904 892 878 878 877 871 868 866 867 874 878 874 867 872 874 873 866 863 860 853 847 842 838 834 828 823 818 814 809 804
867 865 861 858 856 855 852 849 847 849 851 851 852 853 857 859 856 857 856 857 862 873 883 904 902 900 896 889 884 883 879 879 880 878 876 873 875 872 872 871 866 861 856 851 844 835 832 829 825 820 817 813 809 804
868 866 862 860 860 856 853 850 851 852 852 853 855 859 860 859 858 861 875 881 887 899 900 904 906 904 899 905 907 899 900 889 888 876 875 876 881 876 871 865 861 857 853 849 845 839 835 830 824 818 813 810 806 801
868 866 865 865 861 857 855 855 854 854 855 857 859 861 862 867 875 887 910 898 908 914 908 909 905 905 901 899 904 899 903 898 884 882 886 890 881 874 864 860 857 853 849 844 840 835 830 825 820 816 811 807 802 798
869 869 869 866 862 860 859 858 858 858 858 859 862 872 882 898 911 928 938 926 923 915 914 912 912 907 902 900 910 907 895 899 884 891 888 884 871 865 861 857 852 849 845 840 835 831 826 821 817 812 807 803 798 794
872 872 870 868 866 864 863 861 860 859 859 868 887 904 919 931 934 938 937 934 919 917 913 912 915 912 906 907 911 904 892 893 898 903 897 882 868 865 860 856 851 844 840 836 830 826 821 816 811 807 803 799 795 790
873 873 871 870 869 868 867 865 863 862 866 888 897 931 935 933 932 929 926 924 917 915 914 916 914 912 914 910 904 898 893 900 898 893 884 873 869 864 859 854 849 843 837 831 827 822 817 812 807 802 797 794 790 785
874 874 873 872 872 870 869 868 867 870 882 898 917 931 933 934 933 929 928 925 916 914 913 914 922 920 921 921 908 918 925 913 897 885 879 874 869 865 859 853 848 842 835 830 824 819 814 808 802 797 792 788 784 780
874 874 874 874 874 873 871 871 875 888 905 920 937 933 935 939 939 935 931 924 917 914 922 924 926 933 925 922 917 915 917 902 892 884 880 876 871 864 857 851 845 839 833 827 821 816 810 804 798 793 787 783 779 775
875 875 875 874 874 875 876 879 888 906 932 940 936 939 936 935 937 933 929 924 921 922 922 931 932 942 949 945 928 911 903 898 894 887 879 872 867 861 856 849 842 837 831 825 819 813 807 801 795 789 783 778 775 770
876 876 875 875 874 876 883 894 898 930 942 939 937 936 936 936 935 933 931 927 924 924 927 933 942 952 937 925 918 910 903 897 889 882 875 870 865 859 853 847 840 834 828 822 816 810 804 799 794 787 780 775 771 768
877 877 877 876 876 878 896 909 911 922 940 939 937 939 939 938 935 934 932 930 928 931 936 940 940 934 927 919 915 909 902 895 888 878 870 865 861 855 851 845 838 832 826 819 813 807 799 794 789 784 779 772 770 765
878 879 878 878 879 886 906 920 927 932 936 940 940 940 941 937 939 940 939 934 936 938 937 935 932 927 922 917 911 905 900 895 890 885 877 866 859 855 849 843 837 831 825 817 810 804 798 792 788 783 777 775 769 766
879 880 880 882 888 900 914 925 929 932 936 942 943 943 950 949 950 946 939 940 939 936 936 933 928 924 918 913 907 903 898 892 888 882 876 868 860 853 846 841 834 828 822 816 808 802 798 793 787 782 779 774 769 764
880 881 884 889 899 912 933 928 933 938 941 946 947 951 954 953 947 943 947 946 940 935 933 930 926 921 917 910 905 901 896 890 884 878 872 866 860 854 847 841 835 827 819 812 807 804 799 792 788 783 779 773 769 765
882 888 901 912 916 931 932 938 937 943 947 951 959 952 953 955 946 948 948 948 938 934 931 926 921 916 912 908 903 898 894 889 883 877 871 865 858 850 846 840 833 827 820 814 809 803 797 792 787 782 778 774 769 766
893 919 920 929 932 932 944 948 951 947 955 962 957 956 955 955 957 957 947 942 936 932 929 925 921 918 914 907 902 897 894 889 883 876 869 866 859 851 843 838 832 826 820 813 807 802 797 791 787 783 779 774 768 765
922 938 932 942 942 935 950 945 954 955 963 956 959 960 959 959 958 953 949 942 936 932 929 925 921 916 912 909 904 897 891 887 882 877 869 864 858 853 845 836 827 821 818 814 808 801 796 791 788 782 780 775 770 766
926 936 941 939 941 944 949 955 957 958 958 951 960 958 961 960 962 946 937 935 934 932 929 925 921 917 913 906 901 897 892 887 883 878 869 863 858 854 848 840 832 827 819 814 808 803 796 791 787 783 780 776 772 767
934 938 934 944 945 946 951 958 957 952 955 956 956 954 954 948 942 936 934 934 932 930 927 923 919 916 911 906 901 895 889 884 878 872 867 860 856 852 847 841 836 828 822 816 810 804 798 793 788 784 780 776 772 768
936 938 938 948 949 950 951 950 951 952 950 952 952 950 947 938 934 933 934 934 932 930 925 919 914 911 907 903 899 894 889 883 876 868 861 855 847 843 842 838 833 826 821 816 811 806 800 795 791 786 783 778 774 770
938 938 943 950 944 942 948 948 949 949 950 950 950 947 942 935 932 932 932 932 930 927 924 920 916 911 906 900 894 889 887 884 880 877 870 863 856 849 843 837 831 826 821 816 810 805 801 796 791 786 782 778 773 769
937 939 942 947 947 949 948 948 948 949 949 949 949 950 945 937 931 930 930 930 929 926 922 917 913 910 906 902 897 891 885 882 878 875 871 865 858 851 845 839 833 827 822 816 811 806 801 796 792 787 783 779 774 770
939 942 942 941 947 948 947 948 950 951 951 950 948 947 943 942 940 928 928 927 926 924 921 918 913 909 906 903 900 896 893 886 878 873 868 864 858 852 846 839 833 828 822 817 812 807 802 797 793 788 783 779 775 770
944 945 946 947 948 947 949 949 952 951 951 951 947 945 944 943 938 928 926 925 925 922 919 916 913 909 906 901 897 893 890 885 880 874 869 865 860 854 846 839 834 829 823 818 813 808 803 798 793 788 783 779 775 770